Location: B�rgermoos
(47.6500°N, 9.0667°E)
Time: 09:32:57
(UTC+00:00)

Terra - Pass Details

Date: 18 September 2020
Orbit: 701 x 703 km, 98.2° (Epoch: 28 October)

Event Time Altitude Azimuth Distance (km) Brightness Sun altitude
Exits shadow 21:58:05 19° 324° (NW) 1,642 4.3 -38.0°
Drops below altitude 10° 21:59:36 10° 333° (NNW) 2,182 5.1 -38.1°
Sets 22:01:59 0° 341° (NNW) 3,105 6.1 -38.2°
